Location: Austin
(30.3000°N, 97.7500°W)
Time: 12:03:17
(UTC-05:00)

Cosmos 2333 Rocket - Pass Details

Date: 03 April 2024
Orbit: 840 x 861 km, 70.8° (Epoch: 21 April)

Event Time Altitude Azimuth Distance (km) Brightness Sun altitude
Exits shadow 04:04:31 26° 52° (NE) 1,588 4.0 -39.2°
Drops below altitude 10° 04:07:13 10° 35° (NE) 2,463 5.3 -38.7°
Sets 04:09:46 0° 29° (NNE) 3,399 6.1 -38.3°
